,,,PA_Meas_PMT16A,,PR_Meas_QMR101_102,,RH_Meas_QMH101,,SR_Meas_QMS101,,TA_Meas_QMH101,,GenWind,,GenWind,
date,time,status,PA,status,PR,status,RH,status,SR,status,TA,status,DirAvg,status,SpdAvg,
2009-09-09, 00:00:04,VALID,1010.18,VALID,0,VALID,95.7032,VALID,0,VALID,24.4327,VALID,52,VALID,0.169922,
2009-09-09, 00:01:04,VALID,1010.19,VALID,0,VALID,95.7413,VALID,0,VALID,24.454,VALID,52,VALID,0.245703,
2009-09-09, 00:02:04,VALID,1010.19,VALID,0,VALID,95.7718,VALID,0,VALID,24.415,VALID,52,VALID,0.141016,
2009-09-09, 00:03:04,VALID,1010.18,VALID,0,VALID,95.8023,VALID,0,VALID,24.4345,VALID,52,VALID,0,
2009-09-09, 00:04:04,VALID,1010.16,VALID,0,VALID,95.8252,VALID,0,VALID,24.4345,VALID,52,VALID,0.172656,
2009-09-09, 00:05:04,VALID,1010.14,VALID,0,VALID,95.8633,VALID,0.105969,VALID,24.4132,VALID,52,VALID,0,
2009-09-09, 00:06:04,VALID,1010.16,VALID,0,VALID,95.8786,VALID,0.105969,VALID,24.3937,VALID,52,VALID,0,
2009-09-09, 00:07:04,VALID,1010.1,VALID,0,VALID,95.9472,VALID,0,VALID,24.3937,VALID,52,VALID,0.218359,
2009-09-09, 00:08:04,VALID,1010.1,VALID,0,VALID,95.9701,VALID,0,VALID,24.415,VALID,52,VALID,0.185156,
2009-09-09, 00:09:04,VALID,1010.09,VALID,0,VALID,95.9701,VALID,0,VALID,24.4132,VALID,52,VALID,0.103125,
2009-09-09, 00:10:04,VALID,1010.09,VALID,0,VALID,96.0082,VALID,0,VALID,24.4345,VALID,52,VALID,0,
2009-09-09, 00:11:04,VALID,1010.11,VALID,0,VALID,95.993,VALID,0,VALID,24.415,VALID,52,VALID,0,
2009-09-09, 00:12:04,VALID,1010.07,VALID,0,VALID,96.0082,VALID,0,VALID,24.415,VALID,52,VALID,0,
2009-09-09, 00:13:04,VALID,1010.07,VALID,0,VALID,95.9854,VALID,0,VALID,24.4345,VALID,52,VALID,0.252344,
2009-09-09, 00:14:04,VALID,1010.11,VALID,0,VALID,96.0006,VALID,0,VALID,24.4345,VALID,52,VALID,0,
2009-09-09, 00:15:04,VALID,1010.12,VALID,0,VALID,96.0159,VALID,0,VALID,24.454,VALID,52,VALID,0,
2009-09-09, 00:16:04,VALID,1010.11,VALID,0,VALID,96.0235,VALID,0,VALID,24.4327,VALID,52,VALID,0,
2009-09-09, 00:17:04,VALID,1010.14,VALID,0,VALID,96.0235,VALID,0,VALID,24.454,VALID,37,VALID,0.35625,
2009-09-09, 00:18:04,VALID,1010.11,VALID,0,VALID,95.9854,VALID,0,VALID,24.4345,VALID,18,VALID,0.322266,
2009-09-09, 00:19:04,VALID,1010.12,VALID,0,VALID,96.0159,VALID,0,VALID,24.4345,VALID,360,VALID,0.328125,
2009-09-09, 00:20:04,VALID,1010.08,VALID,0,VALID,95.993,VALID,0,VALID,24.4132,VALID,360,VALID,0.374609,
2009-09-09, 00:21:04,VALID,1010.06,VALID,0,VALID,95.9625,VALID,0,VALID,24.4345,VALID,360,VALID,0.528906,
2009-09-09, 00:22:04,VALID,1010.08,VALID,0,VALID,95.9777,VALID,0,VALID,24.4345,VALID,360,VALID,0.439063,
2009-09-09, 00:23:04,VALID,1010.02,VALID,0,VALID,95.9701,VALID,0,VALID,24.3937,VALID,360,VALID,0.352344,
2009-09-09, 00:24:04,VALID,1010.01,VALID,0,VALID,95.9549,VALID,0,VALID,24.3956,VALID,360,VALID,0.272266,
2009-09-09, 00:25:04,VALID,1010.04,VALID,0,VALID,95.993,VALID,0,VALID,24.3956,VALID,360,VALID,0.416016,
2009-09-09, 00:26:04,VALID,1010.01,VALID,0,VALID,95.9854,VALID,0,VALID,24.3547,VALID,360,VALID,0.334766,
2009-09-09, 00:27:04,VALID,1010.01,VALID,0,VALID,96.0006,VALID,0,VALID,24.3761,VALID,357,VALID,0.240625,
2009-09-09, 00:28:04,VALID,1010,VALID,0,VALID,96.0235,VALID,0,VALID,24.3566,VALID,357,VALID,0.238672,
2009-09-09, 00:29:04,VALID,1010.02,VALID,0,VALID,96.0387,VALID,0,VALID,24.3566,VALID,357,VALID,0,
2009-09-09, 00:30:04,VALID,1010.01,VALID,0,VALID,96.0464,VALID,0,VALID,24.3352,VALID,357,VALID,0,
2009-09-09, 00:31:04,VALID,1010.01,VALID,0,VALID,96.0921,VALID,0,VALID,24.3371,VALID,357,VALID,0,
2009-09-09, 00:32:04,VALID,1009.99,VALID,0,VALID,96.0845,VALID,0,VALID,24.3158,VALID,357,VALID,0,
2009-09-09, 00:33:04,VALID,1009.97,VALID,0,VALID,96.0997,VALID,0,VALID,24.2963,VALID,357,VALID,0,
2009-09-09, 00:34:04,VALID,1009.97,VALID,0,VALID,96.115,VALID,0.105969,VALID,24.2963,VALID,357,VALID,0,
2009-09-09, 00:35:04,VALID,1009.93,VALID,0,VALID,96.115,VALID,0,VALID,24.2768,VALID,357,VALID,0,
2009-09-09, 00:36:04,VALID,1009.92,VALID,0,VALID,96.1455,VALID,0,VALID,24.2573,VALID,357,VALID,0,
2009-09-09, 00:37:04,VALID,1009.92,VALID,0,VALID,96.1989,VALID,0,VALID,24.2573,VALID,357,VALID,0,
2009-09-09, 00:38:04,VALID,1009.94,VALID,0,VALID,96.2294,VALID,0,VALID,24.2768,VALID,357,VALID,0,
2009-09-09, 00:39:04,VALID,1009.94,VALID,0,VALID,96.2904,VALID,0,VALID,24.2768,VALID,357,VALID,0.169922,
2009-09-09, 00:40:04,VALID,1009.96,VALID,0,VALID,96.3285,VALID,0,VALID,24.2768,VALID,357,VALID,0.0488281,
2009-09-09, 00:41:04,VALID,1009.96,VALID,0,VALID,96.3285,VALID,0,VALID,24.2573,VALID,357,VALID,0,
2009-09-09, 00:42:04,VALID,1009.94,VALID,0,VALID,96.3133,VALID,0,VALID,24.2786,VALID,357,VALID,0,
2009-09-09, 00:43:04,VALID,1009.96,VALID,0,VALID,96.3209,VALID,0,VALID,24.2573,VALID,357,VALID,0.494531,
2009-09-09, 00:44:04,VALID,1009.98,VALID,0,VALID,96.3666,VALID,0,VALID,24.2591,VALID,357,VALID,0.667578,
2009-09-09, 00:45:04,VALID,1010.01,VALID,0,VALID,96.4277,VALID,0,VALID,24.2786,VALID,357,VALID,0.437109,
2009-09-09, 00:46:04,VALID,1009.99,VALID,0,VALID,96.4582,VALID,0,VALID,24.2573,VALID,357,VALID,0.311328,
2009-09-09, 00:47:04,VALID,1009.96,VALID,0,VALID,96.4505,VALID,0,VALID,24.2183,VALID,357,VALID,0.259766,
2009-09-09, 00:48:04,VALID,1009.97,VALID,0,VALID,96.4658,VALID,0,VALID,24.2591,VALID,357,VALID,0.2,
2009-09-09, 00:49:04,VALID,1009.97,VALID,0,VALID,96.4887,VALID,0,VALID,24.2396,VALID,357,VALID,0.225781,
2009-09-09, 00:50:04,VALID,1009.98,VALID,0,VALID,96.5268,VALID,0,VALID,24.2183,VALID,357,VALID,0.138672,
2009-09-09, 00:51:04,VALID,1009.97,VALID,0,VALID,96.5497,VALID,0,VALID,24.2396,VALID,357,VALID,0.0140625,
2009-09-09, 00:52:04,VALID,1009.97,VALID,0,VALID,96.5725,VALID,0,VALID,24.2183,VALID,357,VALID,0,
2009-09-09, 00:53:04,VALID,1009.98,VALID,0,VALID,96.5878,VALID,0.105969,VALID,24.2591,VALID,357,VALID,0.441406,
2009-09-09, 00:54:04,VALID,1009.96,VALID,0,VALID,96.6183,VALID,0,VALID,24.2591,VALID,357,VALID,0.233203,
2009-09-09, 00:55:04,VALID,1009.96,VALID,0,VALID,96.6412,VALID,0,VALID,24.2378,VALID,10,VALID,0.411719,
2009-09-09, 00:56:04,VALID,1009.94,VALID,0,VALID,96.6335,VALID,0,VALID,24.2591,VALID,10,VALID,0.316016,
2009-09-09, 00:57:04,VALID,1009.92,VALID,0,VALID,96.6335,VALID,0,VALID,24.2591,VALID,10,VALID,0.226563,
2009-09-09, 00:58:04,VALID,1009.92,VALID,0,VALID,96.6488,VALID,0,VALID,24.2591,VALID,10,VALID,0.228516,
2009-09-09, 00:59:04,VALID,1009.93,VALID,0,VALID,96.6259,VALID,0,VALID,24.2591,VALID,10,VALID,0.09375,
2009-09-09, 01:00:04,VALID,1009.97,VALID,0,VALID,96.6564,VALID,0.105969,VALID,24.2573,VALID,10,VALID,0,
2009-09-09, 01:01:04,VALID,1009.93,VALID,0,VALID,96.6717,VALID,0,VALID,24.2573,VALID,10,VALID,0,
2009-09-09, 01:02:04,VALID,1009.95,VALID,0,VALID,96.6793,VALID,0,VALID,24.2768,VALID,10,VALID,0,
2009-09-09, 01:03:04,VALID,1009.95,VALID,0,VALID,96.7098,VALID,0,VALID,24.2981,VALID,10,VALID,0,
2009-09-09, 01:04:04,VALID,1009.91,VALID,0,VALID,96.6946,VALID,0,VALID,24.3158,VALID,10,VALID,0,
2009-09-09, 01:05:04,VALID,1009.9,VALID,0,VALID,96.6869,VALID,0,VALID,24.2963,VALID,10,VALID,0,
2009-09-09, 01:06:04,VALID,1009.89,VALID,0,VALID,96.6869,VALID,0,VALID,24.3176,VALID,10,VALID,0,
2009-09-09, 01:07:04,VALID,1009.85,VALID,0,VALID,96.6717,VALID,0,VALID,24.2981,VALID,10,VALID,0,
2009-09-09, 01:08:04,VALID,1009.85,VALID,0,VALID,96.664,VALID,0,VALID,24.2786,VALID,10,VALID,0.279687,
2009-09-09, 01:09:04,VALID,1009.83,VALID,0,VALID,96.6488,VALID,0,VALID,24.3,VALID,10,VALID,0.301953,
2009-09-09, 01:10:04,VALID,1009.84,VALID,0,VALID,96.6488,VALID,0,VALID,24.2786,VALID,10,VALID,0.262109,
2009-09-09, 01:11:04,VALID,1009.82,VALID,0,VALID,96.6412,VALID,0,VALID,24.3,VALID,10,VALID,0.282422,
2009-09-09, 01:12:04,VALID,1009.86,VALID,0,VALID,96.6412,VALID,0,VALID,24.2805,VALID,10,VALID,0.190234,
2009-09-09, 01:13:04,VALID,1009.85,VALID,0,VALID,96.6412,VALID,0,VALID,24.2805,VALID,10,VALID,0.160156,
2009-09-09, 01:14:04,VALID,1009.82,VALID,0,VALID,96.6335,VALID,0,VALID,24.2591,VALID,10,VALID,0.0796875,
2009-09-09, 01:15:04,VALID,1009.83,VALID,0,VALID,96.6335,VALID,0,VALID,24.261,VALID,10,VALID,0,
2009-09-09, 01:16:04,VALID,1009.8,VALID,0,VALID,96.6259,VALID,0,VALID,24.2396,VALID,10,VALID,0,
2009-09-09, 01:17:04,VALID,1009.77,VALID,0,VALID,96.6488,VALID,0,VALID,24.2202,VALID,10,VALID,0,
2009-09-09, 01:18:04,VALID,1009.72,VALID,0,VALID,96.6412,VALID,0,VALID,24.2415,VALID,10,VALID,0,
2009-09-09, 01:19:04,VALID,1009.74,VALID,0,VALID,96.6717,VALID,0,VALID,24.2415,VALID,10,VALID,0,
2009-09-09, 01:20:04,VALID,1009.75,VALID,0,VALID,96.664,VALID,0,VALID,24.222,VALID,10,VALID,0,
2009-09-09, 01:21:04,VALID,1009.75,VALID,0,VALID,96.6488,VALID,0,VALID,24.2007,VALID,10,VALID,0,
2009-09-09, 01:22:04,VALID,1009.76,VALID,0,VALID,96.6869,VALID,0,VALID,24.222,VALID,10,VALID,0.132813,
2009-09-09, 01:23:04,VALID,1009.78,VALID,0,VALID,96.6946,VALID,0,VALID,24.1812,VALID,10,VALID,0.0515625,
2009-09-09, 01:24:04,VALID,1009.82,VALID,0,VALID,96.7098,VALID,0,VALID,24.1812,VALID,10,VALID,0,
2009-09-09, 01:25:04,VALID,1009.77,VALID,0,VALID,96.7327,VALID,0,VALID,24.1812,VALID,10,VALID,0,
2009-09-09, 01:26:04,VALID,1009.81,VALID,0,VALID,96.7251,VALID,0,VALID,24.183,VALID,10,VALID,0,
2009-09-09, 01:27:04,VALID,1009.82,VALID,0,VALID,96.7251,VALID,0,VALID,24.1617,VALID,10,VALID,0,
2009-09-09, 01:28:04,VALID,1009.8,VALID,0,VALID,96.7098,VALID,0,VALID,24.1227,VALID,10,VALID,0,
2009-09-09, 01:29:04,VALID,1009.82,VALID,0,VALID,96.7403,VALID,0,VALID,24.1245,VALID,10,VALID,0,
2009-09-09, 01:30:04,VALID,1009.81,VALID,0,VALID,96.7708,VALID,0,VALID,24.1227,VALID,10,VALID,0,
2009-09-09, 01:31:04,VALID,1009.82,VALID,0,VALID,96.7708,VALID,0,VALID,24.0819,VALID,10,VALID,0,
2009-09-09, 01:32:04,VALID,1009.83,VALID,0,VALID,96.7861,VALID,0.105969,VALID,24.0837,VALID,10,VALID,0,
2009-09-09, 01:33:04,VALID,1009.78,VALID,0,VALID,96.8089,VALID,0.105969,VALID,24.0429,VALID,10,VALID,0,
2009-09-09, 01:34:04,VALID,1009.78,VALID,0,VALID,96.8242,VALID,0.105969,VALID,24.0429,VALID,10,VALID,0,
2009-09-09, 01:35:04,VALID,1009.75,VALID,0,VALID,96.8547,VALID,0.105969,VALID,24.0643,VALID,10,VALID,0,
2009-09-09, 01:36:04,VALID,1009.72,VALID,0,VALID,96.8623,VALID,0,VALID,24.0448,VALID,10,VALID,0,
2009-09-09, 01:37:05,VALID,1009.73,VALID,0,VALID,96.8699,VALID,0.105969,VALID,23.9845,VALID,10,VALID,0,
2009-09-09, 01:38:05,VALID,1009.72,VALID,0,VALID,96.8623,VALID,0,VALID,23.9473,VALID,10,VALID,0,
2009-09-09, 01:39:05,VALID,1009.73,VALID,0,VALID,96.8471,VALID,0,VALID,23.9065,VALID,10,VALID,0,
2009-09-09, 01:40:05,VALID,1009.76,VALID,0,VALID,96.8471,VALID,0,VALID,23.9278,VALID,10,VALID,0,
2009-09-09, 01:41:05,VALID,1009.76,VALID,0,VALID,96.8699,VALID,0,VALID,23.926,VALID,10,VALID,0,
2009-09-09, 01:42:05,VALID,1009.77,VALID,0,VALID,96.8928,VALID,0.105969,VALID,23.9473,VALID,10,VALID,0,
2009-09-09, 01:43:05,VALID,1009.76,VALID,0,VALID,96.9462,VALID,0.105969,VALID,23.9455,VALID,10,VALID,0,
2009-09-09, 01:44:05,VALID,1009.81,VALID,0,VALID,96.9615,VALID,0.105969,VALID,23.9455,VALID,10,VALID,0,
2009-09-09, 01:45:05,VALID,1009.78,VALID,0,VALID,96.9767,VALID,0,VALID,23.9455,VALID,10,VALID,0,
2009-09-09, 01:46:05,VALID,1009.76,VALID,0,VALID,96.9843,VALID,0.105969,VALID,23.9455,VALID,10,VALID,0,
2009-09-09, 01:47:05,VALID,1009.79,VALID,0,VALID,96.9996,VALID,0.105969,VALID,23.9455,VALID,10,VALID,0,
2009-09-09, 01:48:05,VALID,1009.81,VALID,0,VALID,96.992,VALID,0.105969,VALID,23.9065,VALID,10,VALID,0,
2009-09-09, 01:49:05,VALID,1009.76,VALID,0,VALID,97.0072,VALID,0.105969,VALID,23.8889,VALID,10,VALID,0,
2009-09-09, 01:50:05,VALID,1009.78,VALID,0,VALID,97.0072,VALID,0.105969,VALID,23.8499,VALID,10,VALID,0,
2009-09-09, 01:51:05,VALID,1009.78,VALID,0,VALID,97.0072,VALID,0,VALID,23.8304,VALID,10,VALID,0,
2009-09-09, 01:52:05,VALID,1009.74,VALID,0,VALID,97.0148,VALID,0,VALID,23.8499,VALID,10,VALID,0,
2009-09-09, 01:53:05,VALID,1009.76,VALID,0,VALID,97.0301,VALID,0,VALID,23.8304,VALID,10,VALID,0,
2009-09-09, 01:54:05,VALID,1009.75,VALID,0,VALID,97.0606,VALID,0.105969,VALID,23.8499,VALID,10,VALID,0,
2009-09-09, 01:55:05,VALID,1009.77,VALID,0,VALID,97.053,VALID,0,VALID,23.8091,VALID,10,VALID,0,
2009-09-09, 01:56:05,VALID,1009.77,VALID,0,VALID,97.0911,VALID,0.105969,VALID,23.8304,VALID,10,VALID,0,
2009-09-09, 01:57:05,VALID,1009.77,VALID,0,VALID,97.0911,VALID,0,VALID,23.7914,VALID,10,VALID,0,
2009-09-09, 01:58:05,VALID,1009.79,VALID,0,VALID,97.1063,VALID,0,VALID,23.772,VALID,10,VALID,0,
2009-09-09, 01:59:05,VALID,1009.78,VALID,0,VALID,97.0911,VALID,0,VALID,23.7312,VALID,10,VALID,0,
2009-09-09, 02:00:05,VALID,1009.76,VALID,0,VALID,97.1063,VALID,0,VALID,23.7525,VALID,10,VALID,0,
2009-09-09, 02:01:05,VALID,1009.78,VALID,0,VALID,97.0835,VALID,0,VALID,23.7914,VALID,10,VALID,0,
2009-09-09, 02:02:05,VALID,1009.77,VALID,0,VALID,97.114,VALID,0,VALID,23.772,VALID,10,VALID,0,
2009-09-09, 02:03:05,VALID,1009.74,VALID,0,VALID,97.114,VALID,0,VALID,23.7914,VALID,10,VALID,0,
2009-09-09, 02:04:05,VALID,1009.74,VALID,0,VALID,97.1445,VALID,0,VALID,23.8109,VALID,10,VALID,0,
2009-09-09, 02:05:05,VALID,1009.73,VALID,0,VALID,97.1597,VALID,0,VALID,23.8109,VALID,10,VALID,0,
2009-09-09, 02:06:05,VALID,1009.74,VALID,0,VALID,97.1979,VALID,0.105969,VALID,23.8091,VALID,10,VALID,0,
2009-09-09, 02:07:05,VALID,1009.75,VALID,0,VALID,97.1826,VALID,0,VALID,23.8109,VALID,10,VALID,0,
2009-09-09, 02:08:05,VALID,1009.73,VALID,0,VALID,97.1826,VALID,0,VALID,23.8109,VALID,10,VALID,0,
2009-09-09, 02:09:05,VALID,1009.73,VALID,0,VALID,97.1979,VALID,0,VALID,23.7914,VALID,10,VALID,0,
2009-09-09, 02:10:05,VALID,1009.78,VALID,0,VALID,97.2055,VALID,0,VALID,23.7507,VALID,10,VALID,0,
2009-09-09, 02:11:05,VALID,1009.77,VALID,0,VALID,97.1979,VALID,0,VALID,23.772,VALID,10,VALID,0,
2009-09-09, 02:12:05,VALID,1009.76,VALID,0,VALID,97.1902,VALID,0,VALID,23.733,VALID,10,VALID,0,
2009-09-09, 02:13:05,VALID,1009.74,VALID,0,VALID,97.1902,VALID,0,VALID,23.733,VALID,10,VALID,0,
2009-09-09, 02:14:05,VALID,1009.75,VALID,0,VALID,97.1979,VALID,0,VALID,23.7312,VALID,10,VALID,0,
2009-09-09, 02:15:05,VALID,1009.76,VALID,0,VALID,97.2055,VALID,0,VALID,23.7525,VALID,10,VALID,0,
2009-09-09, 02:16:05,VALID,1009.74,VALID,0,VALID,97.2207,VALID,0,VALID,23.7525,VALID,10,VALID,0,
2009-09-09, 02:17:05,VALID,1009.75,VALID,0,VALID,97.1902,VALID,0,VALID,23.7525,VALID,10,VALID,0,
2009-09-09, 02:18:05,VALID,1009.77,VALID,0,VALID,97.2131,VALID,0,VALID,23.772,VALID,10,VALID,0,
2009-09-09, 02:19:05,VALID,1009.75,VALID,0,VALID,97.2436,VALID,0,VALID,23.772,VALID,10,VALID,0,
2009-09-09, 02:20:05,VALID,1009.74,VALID,0,VALID,97.236,VALID,0,VALID,23.772,VALID,10,VALID,0,
2009-09-09, 02:21:05,VALID,1009.73,VALID,0,VALID,97.2207,VALID,0,VALID,23.7525,VALID,10,VALID,0,
2009-09-09, 02:22:05,VALID,1009.73,VALID,0,VALID,97.2436,VALID,0.105969,VALID,23.7312,VALID,10,VALID,0,
2009-09-09, 02:23:05,VALID,1009.72,VALID,0,VALID,97.2512,VALID,0,VALID,23.7525,VALID,10,VALID,0,
2009-09-09, 02:24:05,VALID,1009.72,VALID,0,VALID,97.2665,VALID,0.105969,VALID,23.7117,VALID,10,VALID,0,
2009-09-09, 02:25:05,VALID,1009.71,VALID,0,VALID,97.2436,VALID,0,VALID,23.7525,VALID,10,VALID,0,
2009-09-09, 02:26:05,VALID,1009.71,VALID,0,VALID,97.2512,VALID,0,VALID,23.7525,VALID,10,VALID,0,
2009-09-09, 02:27:05,VALID,1009.68,VALID,0,VALID,97.2589,VALID,0,VALID,23.7507,VALID,10,VALID,0,
2009-09-09, 02:28:05,VALID,1009.7,VALID,0,VALID,97.2512,VALID,0,VALID,23.772,VALID,10,VALID,0,
2009-09-09, 02:29:05,VALID,1009.71,VALID,0,VALID,97.2665,VALID,0.105969,VALID,23.772,VALID,10,VALID,0,
2009-09-09, 02:30:05,VALID,1009.72,VALID,0,VALID,97.2741,VALID,0,VALID,23.7117,VALID,10,VALID,0,
2009-09-09, 02:31:05,VALID,1009.72,VALID,0,VALID,97.2817,VALID,0,VALID,23.7117,VALID,10,VALID,0,
2009-09-09, 02:32:05,VALID,1009.75,VALID,0,VALID,97.297,VALID,0,VALID,23.694,VALID,10,VALID,0,
2009-09-09, 02:33:05,VALID,1009.75,VALID,0,VALID,97.2894,VALID,0,VALID,23.6532,VALID,10,VALID,0,
2009-09-09, 02:34:05,VALID,1009.77,VALID,0,VALID,97.3046,VALID,0,VALID,23.6143,VALID,10,VALID,0,
2009-09-09, 02:35:05,VALID,1009.76,VALID,0,VALID,97.297,VALID,0.105969,VALID,23.5966,VALID,10,VALID,0,
2009-09-09, 02:36:05,VALID,1009.74,VALID,0,VALID,97.297,VALID,0,VALID,23.5753,VALID,10,VALID,0,
2009-09-09, 02:37:05,VALID,1009.75,VALID,0,VALID,97.2894,VALID,0,VALID,23.5966,VALID,10,VALID,0,
2009-09-09, 02:38:05,VALID,1009.74,VALID,0,VALID,97.297,VALID,0,VALID,23.5771,VALID,10,VALID,0,
2009-09-09, 02:39:05,VALID,1009.75,VALID,0,VALID,97.3122,VALID,0,VALID,23.5771,VALID,10,VALID,0,
2009-09-09, 02:40:05,VALID,1009.71,VALID,0,VALID,97.3046,VALID,0.105969,VALID,23.5771,VALID,10,VALID,0,
2009-09-09, 02:41:05,VALID,1009.74,VALID,0,VALID,97.297,VALID,0,VALID,23.5363,VALID,10,VALID,0,
2009-09-09, 02:42:05,VALID,1009.73,VALID,0,VALID,97.3122,VALID,0,VALID,23.5363,VALID,10,VALID,0,
2009-09-09, 02:43:05,VALID,1009.73,VALID,0,VALID,97.2894,VALID,0,VALID,23.5558,VALID,10,VALID,0,
2009-09-09, 02:44:05,VALID,1009.72,VALID,0,VALID,97.297,VALID,0.105969,VALID,23.6161,VALID,10,VALID,0,
2009-09-09, 02:45:05,VALID,1009.71,VALID,0,VALID,97.3046,VALID,0,VALID,23.6356,VALID,10,VALID,0,
2009-09-09, 02:46:05,VALID,1009.67,VALID,0,VALID,97.2589,VALID,0,VALID,23.655,VALID,10,VALID,0,
2009-09-09, 02:47:05,VALID,1009.64,VALID,0,VALID,97.3046,VALID,0,VALID,23.6338,VALID,10,VALID,0,
2009-09-09, 02:48:05,VALID,1009.65,VALID,0,VALID,97.297,VALID,0,VALID,23.6745,VALID,10,VALID,0,
2009-09-09, 02:49:05,VALID,1009.66,VALID,0,VALID,97.2741,VALID,0.105969,VALID,23.6745,VALID,10,VALID,0,
2009-09-09, 02:50:05,VALID,1009.63,VALID,0,VALID,97.2741,VALID,0,VALID,23.6532,VALID,10,VALID,0,
2009-09-09, 02:51:05,VALID,1009.63,VALID,0,VALID,97.297,VALID,0.105969,VALID,23.6745,VALID,10,VALID,0,
2009-09-09, 02:52:05,VALID,1009.61,VALID,0,VALID,97.3199,VALID,0,VALID,23.6356,VALID,10,VALID,0,
2009-09-09, 02:53:05,VALID,1009.61,VALID,0,VALID,97.3122,VALID,0,VALID,23.6356,VALID,10,VALID,0,
2009-09-09, 02:54:05,VALID,1009.6,VALID,0,VALID,97.3199,VALID,0,VALID,23.6568,VALID,10,VALID,0,
2009-09-09, 02:55:05,VALID,1009.62,VALID,0,VALID,97.3122,VALID,0,VALID,23.6161,VALID,10,VALID,0,
2009-09-09, 02:56:05,VALID,1009.59,VALID,0,VALID,97.3275,VALID,0,VALID,23.6161,VALID,10,VALID,0,
2009-09-09, 02:57:05,VALID,1009.58,VALID,0,VALID,97.3122,VALID,0,VALID,23.6373,VALID,10,VALID,0,
2009-09-09, 02:58:05,VALID,1009.58,VALID,0,VALID,97.3199,VALID,0,VALID,23.5966,VALID,10,VALID,0,
2009-09-09, 02:59:05,VALID,1009.58,VALID,0,VALID,97.3427,VALID,0,VALID,23.5771,VALID,10,VALID,0,
2009-09-09, 03:00:05,VALID,1009.57,VALID,0,VALID,97.3656,VALID,0,VALID,23.5771,VALID,10,VALID,0,
2009-09-09, 03:01:05,VALID,1009.59,VALID,0,VALID,97.3427,VALID,0,VALID,23.5381,VALID,10,VALID,0,
2009-09-09, 03:02:05,VALID,1009.59,VALID,0,VALID,97.3427,VALID,0,VALID,23.5186,VALID,10,VALID,0,
2009-09-09, 03:03:05,VALID,1009.58,VALID,0,VALID,97.358,VALID,0,VALID,23.5399,VALID,10,VALID,0,
2009-09-09, 03:04:05,VALID,1009.59,VALID,0,VALID,97.3199,VALID,0,VALID,23.5399,VALID,10,VALID,0,
2009-09-09, 03:05:05,VALID,1009.61,VALID,0,VALID,97.3504,VALID,0,VALID,23.5381,VALID,10,VALID,0,
2009-09-09, 03:06:05,VALID,1009.61,VALID,0,VALID,97.3122,VALID,0,VALID,23.5594,VALID,10,VALID,0,
2009-09-09, 03:07:05,VALID,1009.63,VALID,0,VALID,97.3199,VALID,0,VALID,23.5576,VALID,10,VALID,0,
2009-09-09, 03:08:05,VALID,1009.65,VALID,0,VALID,97.3275,VALID,0,VALID,23.5984,VALID,10,VALID,0,
2009-09-09, 03:09:05,VALID,1009.6,VALID,0,VALID,97.3809,VALID,0,VALID,23.4992,VALID,10,VALID,0.663672,
2009-09-09, 03:10:05,VALID,1009.62,VALID,0,VALID,97.4114,VALID,0,VALID,23.4407,VALID,10,VALID,0.725781,
2009-09-09, 03:11:05,VALID,1009.6,VALID,0,VALID,97.3885,VALID,0,VALID,23.4017,VALID,10,VALID,0.482422,
2009-09-09, 03:12:05,VALID,1009.56,VALID,0,VALID,97.358,VALID,0,VALID,23.4017,VALID,10,VALID,0.00546875,
2009-09-09, 03:13:05,VALID,1009.57,VALID,0,VALID,97.3732,VALID,0,VALID,23.4017,VALID,10,VALID,0,
2009-09-09, 03:14:05,VALID,1009.56,VALID,0,VALID,97.3732,VALID,0,VALID,23.4212,VALID,10,VALID,0,
2009-09-09, 03:15:05,VALID,1009.53,VALID,0,VALID,97.3427,VALID,0,VALID,23.4212,VALID,10,VALID,0,
2009-09-09, 03:16:05,VALID,1009.54,VALID,0,VALID,97.3504,VALID,0,VALID,23.462,VALID,10,VALID,0,
2009-09-09, 03:17:05,VALID,1009.56,VALID,0,VALID,97.3732,VALID,0,VALID,23.462,VALID,10,VALID,0,
2009-09-09, 03:18:05,VALID,1009.56,VALID,0,VALID,97.3732,VALID,0,VALID,23.4425,VALID,10,VALID,0,
2009-09-09, 03:19:05,VALID,1009.55,VALID,0,VALID,97.3504,VALID,0,VALID,23.4407,VALID,10,VALID,0,
2009-09-09, 03:20:05,VALID,1009.56,VALID,0,VALID,97.3656,VALID,0,VALID,23.4602,VALID,10,VALID,0.145313,
2009-09-09, 03:21:05,VALID,1009.56,VALID,0,VALID,97.358,VALID,0,VALID,23.4797,VALID,10,VALID,0.177344,
2009-09-09, 03:22:05,VALID,1009.58,VALID,0,VALID,97.3504,VALID,0,VALID,23.4992,VALID,10,VALID,0.121484,
2009-09-09, 03:23:05,VALID,1009.56,VALID,0,VALID,97.3351,VALID,0,VALID,23.4992,VALID,10,VALID,0.0714844,
2009-09-09, 03:24:05,VALID,1009.58,VALID,0,VALID,97.3809,VALID,0,VALID,23.5381,VALID,10,VALID,0.201562,
2009-09-09, 03:25:05,VALID,1009.57,VALID,0,VALID,97.358,VALID,0,VALID,23.5381,VALID,10,VALID,0.346094,
2009-09-09, 03:26:05,VALID,1009.54,VALID,0,VALID,97.3732,VALID,0,VALID,23.5186,VALID,10,VALID,0.385156,
2009-09-09, 03:27:05,VALID,1009.56,VALID,0,VALID,97.3656,VALID,0,VALID,23.5381,VALID,10,VALID,0.315234,
2009-09-09, 03:28:05,VALID,1009.56,VALID,0,VALID,97.3732,VALID,0,VALID,23.5381,VALID,10,VALID,0.236719,
2009-09-09, 03:29:05,VALID,1009.54,VALID,0,VALID,97.3656,VALID,0,VALID,23.5381,VALID,10,VALID,0.125391,
2009-09-09, 03:30:05,VALID,1009.59,VALID,0,VALID,97.3961,VALID,0,VALID,23.5576,VALID,10,VALID,0,
2009-09-09, 03:31:05,VALID,1009.56,VALID,0,VALID,97.3732,VALID,0,VALID,23.5381,VALID,10,VALID,0,
2009-09-09, 03:32:05,VALID,1009.6,VALID,0,VALID,97.3732,VALID,0,VALID,23.5381,VALID,10,VALID,0,
2009-09-09, 03:33:05,VALID,1009.62,VALID,0,VALID,97.3732,VALID,0,VALID,23.5186,VALID,10,VALID,0.105469,
2009-09-09, 03:34:05,VALID,1009.61,VALID,0,VALID,97.3504,VALID,0,VALID,23.5186,VALID,10,VALID,0.111719,
2009-09-09, 03:35:05,VALID,1009.63,VALID,0,VALID,97.3656,VALID,0,VALID,23.5186,VALID,10,VALID,0,
2009-09-09, 03:36:05,VALID,1009.64,VALID,0,VALID,97.3809,VALID,0,VALID,23.5186,VALID,10,VALID,0,
2009-09-09, 03:37:05,VALID,1009.62,VALID,0,VALID,97.3656,VALID,0,VALID,23.5186,VALID,10,VALID,0,
2009-09-09, 03:38:05,VALID,1009.61,VALID,0,VALID,97.3504,VALID,0,VALID,23.5186,VALID,10,VALID,0,
2009-09-09, 03:39:05,VALID,1009.63,VALID,0,VALID,97.3732,VALID,0,VALID,23.5399,VALID,10,VALID,0,
2009-09-09, 03:40:05,VALID,1009.64,VALID,0,VALID,97.3885,VALID,0,VALID,23.5399,VALID,10,VALID,0.0609375,
2009-09-09, 03:41:05,VALID,1009.67,VALID,0,VALID,97.419,VALID,0,VALID,23.4797,VALID,10,VALID,0.310547,
2009-09-09, 03:42:05,VALID,1009.71,VALID,0,VALID,97.3961,VALID,0,VALID,23.4815,VALID,10,VALID,0.197656,
2009-09-09, 03:43:05,VALID,1009.74,VALID,0,VALID,97.419,VALID,0,VALID,23.4602,VALID,10,VALID,0.11875,
2009-09-09, 03:44:05,VALID,1009.75,VALID,0,VALID,97.4037,VALID,0,VALID,23.4212,VALID,10,VALID,0,
2009-09-09, 03:45:05,VALID,1009.76,VALID,0,VALID,97.419,VALID,0,VALID,23.4212,VALID,10,VALID,0,
2009-09-09, 03:46:05,VALID,1009.8,VALID,0,VALID,97.419,VALID,0,VALID,23.4017,VALID,10,VALID,0,
2009-09-09, 03:47:05,VALID,1009.8,VALID,0,VALID,97.3809,VALID,0,VALID,23.4407,VALID,10,VALID,0,
2009-09-09, 03:48:05,VALID,1009.8,VALID,0,VALID,97.3732,VALID,0,VALID,23.462,VALID,10,VALID,0,
2009-09-09, 03:49:05,VALID,1009.8,VALID,0,VALID,97.3961,VALID,0,VALID,23.4407,VALID,10,VALID,0,
2009-09-09, 03:50:05,VALID,1009.8,VALID,0,VALID,97.4037,VALID,0,VALID,23.462,VALID,10,VALID,0,
2009-09-09, 03:51:05,VALID,1009.83,VALID,0,VALID,97.3885,VALID,0,VALID,23.462,VALID,10,VALID,0,
2009-09-09, 03:52:05,VALID,1009.83,VALID,0,VALID,97.3885,VALID,0,VALID,23.4602,VALID,10,VALID,0,
2009-09-09, 03:53:05,VALID,1009.85,VALID,0,VALID,97.3961,VALID,0,VALID,23.4602,VALID,10,VALID,0,
2009-09-09, 03:54:05,VALID,1009.83,VALID,0,VALID,97.4114,VALID,0,VALID,23.4602,VALID,10,VALID,0,
2009-09-09, 03:55:05,VALID,1009.86,VALID,0,VALID,97.3732,VALID,0,VALID,23.4602,VALID,10,VALID,0,